User: anonymous   Login
Location: Newark
(43.6583°N, 1.6617°E)
Time: 10:08:53
(UTC+00:00)
Language:

A-11 Canister half - Orbit

View from above orbital plane
View from above orbital plane
View from above satellite
View from above satellite

Ground track
Ground track

The orbit data is extracted from the following two-line orbital elements,

1    51U 60009C   19237.86115651 -.00000105 +00000-0 -19070-3 0  9994
2    51 047.2112 185.0007 0108098 000.4498 359.6373 12.18276482627931
Epoch (UTC): 25 August 2019 20:40:03
Eccentricity: 0.0108098
inclination: 47.2112°
perigee height: 1514 km
apogee height: 1686 km
right ascension of ascending node: 185.0007°
argument of perigee: 0.4498°
revolutions per day: 12.18276482
mean anomaly at epoch: 359.6373°
orbit number at epoch: 62793

The dashed part of the orbit path shows where the satellite is in the earth's shadow,  

DLR